Flag for USA

Past Weather in 41°58'41.5"N, 88°13'02.4"W, USA — Yesterday and Last 2 Weeks

Now
78 °F

More clouds than sun.


Feels Like: 79 °F
Forecast: 77 / 65 °F
Wind: 15 mph from South

Location: Chicago Midway Airport
Current Time: Sep 26, 2020 at 6:54:37 pm
Latest Report: Sep 26, 2020 at 5:53 pm
Visibility: 10 mi
Pressure29.66 "Hg
Humidity: 52%
Dew Point: 59 °F
Location of 41°58'41.5"N, 88°13'02.4"WLocation

Past Weather in 41°58'41.5"N, 88°13'02.4"W — Graph

°F

41°58'41.5"N, 88°13'02.4"W Temperature Yesterday

Maximum temperature yesterday: 80 °F (at 3:53 pm)
Minimum temperature yesterday: 59 °F (at 6:53 am)
Average temperature yesterday: 71 °F

High & Low Weather Summary for the Past Weeks

 TemperatureHumidityPressure
High83 °F (Sep 16, 3:53 pm)94% (Sep 12, 8:53 am)30.44 "Hg (Sep 12, 8:53 am)
Low48 °F (Sep 19, 4:53 am)25% (Sep 20, 3:53 pm)29.68 "Hg (Sep 26, 4:53 pm)
Average66 °F62%30.12 "Hg
* Reported Sep 11 4:53 pm — Sep 26 4:53 pm, 41°58'41.5"N, 88°13'02.4"W. Weather by CustomWeather, © 2020

Note: Actual official high and low records may vary slightly from our data, if they occured in-between our weather recording intervals... More about our weather records

41°58'41.5"N, 88°13'02.4"W Weather History for the Previous 24 Hours

Scroll right to see more
 ConditionsComfort  
Time TempWeatherWind HumidityBarometerVisibility
4:53 pm
Sat, Sep 26
77 °FMore clouds than sun.15 mph58%29.68 "Hg10 mi
3:53 pm76 °FMore clouds than sun.20 mph60%29.69 "Hg10 mi
2:53 pm73 °FMore clouds than sun.16 mph66%29.72 "Hg10 mi
1:53 pm70 °FOvercast.17 mph73%29.74 "Hg10 mi
12:53 pm68 °FOvercast.17 mph78%29.78 "Hg8 mi
11:53 am67 °FOvercast.14 mph79%29.80 "Hg8 mi
10:53 am66 °FOvercast.13 mph81%29.82 "Hg8 mi
9:53 am65 °FLow clouds.15 mph85%29.83 "Hg8 mi
8:53 am64 °FLow clouds.15 mph84%29.84 "Hg10 mi
7:53 am64 °FPartly sunny.13 mph84%29.83 "Hg10 mi
6:53 am63 °FPartly sunny.9 mph87%29.82 "Hg10 mi
5:53 am63 °FPassing clouds.10 mph87%29.82 "Hg10 mi
4:53 am63 °FPassing clouds.12 mph87%29.82 "Hg10 mi
3:53 am64 °FPassing clouds.12 mph84%29.83 "Hg10 mi
2:53 am65 °FPassing clouds.8 mph81%29.84 "Hg10 mi
1:53 am66 °FPassing clouds.9 mph78%29.85 "Hg10 mi
12:53 am67 °FPassing clouds.10 mph73%29.83 "Hg10 mi
11:53 pm
Fri, Sep 25
69 °FPassing clouds.10 mph68%29.84 "Hg10 mi
10:53 pm71 °FPassing clouds.10 mph57%29.85 "Hg10 mi
9:53 pm72 °FPassing clouds.8 mph52%29.87 "Hg10 mi
8:53 pm74 °FPassing clouds.8 mph48%29.87 "Hg10 mi
7:53 pm76 °FPassing clouds.9 mph45%29.86 "Hg10 mi
6:53 pm77 °FPassing clouds.7 mph42%29.86 "Hg10 mi
Weather by CustomWeather, © 2020

See weather overview